Wind_Speed
18 18 18 18 18 19 19 19 20 21 21 21 22 22 22 22 22 21 21 22 22 23 23 23 24 24 24 24 24 24 24 24 24 24 24 25 25 25 25 24 24 24 24 25
19 19 19 19 19 19 20 20 21 21 22 22 23 23 23 23 22 22 22 23 23 23 24 24 24 24 25 25 24 24 24 24 24 24 24 24 25 24 25 24 24 24 25 25
20 20 21 21 20 19 20 20 20 21 22 23 24 24 24 24 23 23 23 24 24 25 24 25 25 25 25 24 24 24 24 24 24 24 24 24 24 24 24 24 25 25 25 25
20 21 22 21 20 21 21 22 21 21 22 23 24 24 25 25 25 25 25 25 25 25 25 25 25 25 25 25 24 24 25 25 25 25 25 25 24 24 24 24 25 25 25 25
22 22 23 22 22 22 23 23 23 23 23 24 24 24 25 25 26 26 26 26 26 25 25 25 25 25 25 25 25 25 25 26 26 25 25 25 24 24 24 24 24 25 24 24
22 23 24 24 24 24 25 25 24 25 24 25 24 24 25 25 26 27 27 26 26 26 25 25 25 25 26 26 26 26 25 26 26 25 25 24 24 24 24 24 24 24 24 24
23 24 25 25 25 25 25 25 25 25 25 24 24 24 24 25 25 26 26 26 26 26 26 26 25 25 26 26 26 26 26 26 26 25 25 25 24 24 24 24 24 24 24 24
24 24 24 24 25 25 26 26 26 26 25 25 24 24 24 24 24 24 25 25 26 26 27 27 26 26 26 26 26 26 26 26 26 26 25 25 25 25 25 25 25 24 25 25
24 23 23 23 24 25 26 26 26 26 25 25 25 24 24 25 25 25 26 26 26 27 27 28 28 27 27 27 27 26 26 26 26 26 25 25 25 25 25 24 24 25 25 25
23 22 22 22 23 23 24 25 25 25 25 25 25 25 25 26 26 26 27 26 26 26 26 27 27 27 27 27 27 26 26 26 26 26 25 25 24 24 24 24 24 24 24 24
22 21 21 22 23 23 23 24 25 25 25 25 25 25 25 26 26 26 27 27 27 27 27 27 27 27 27 27 26 26 26 26 26 26 25 24 24 24 24 24 25 25 24 24
22 22 23 22 23 24 24 24 25 25 25 26 27 27 27 27 27 28 28 28 28 28 27 27 27 27 27 27 27 27 27 26 26 26 25 25 24 24 24 24 24 25 24 23
23 23 24 24 24 24 24 25 26 26 26 27 27 28 28 28 28 28 28 28 28 28 28 27 26 26 26 27 27 27 27 26 26 26 25 25 25 24 24 24 24 24 24 24
24 24 25 25 25 25 25 26 27 27 27 27 27 27 28 28 28 28 28 28 28 28 27 27 27 26 26 26 26 26 26 26 26 26 26 25 25 25 25 24 24 24 24 23
24 24 25 26 25 26 26 26 25 25 26 26 26 26 26 26 26 26 26 27 27 27 27 27 27 27 27 26 26 26 26 25 25 25 25 25 25 25 24 24 23 23 22 22
25 25 25 25 25 25 25 25 25 24 24 24 24 25 25 25 25 25 26 26 27 26 26 25 25 25 25 25 25 25 25 25 24 24 24 25 25 25 24 23 23 23 23 23
26 25 24 24 24 25 25 25 25 25 24 23 24 24 24 24 24 24 24 25 25 25 24 24 24 24 24 24 25 25 25 25 26 26 25 25 25 25 24 24 24 24 23 23
26 25 25 24 24 24 25 25 24 24 24 24 24 23 23 23 23 23 23 24 24 25 24 24 24 24 23 24 24 24 24 24 25 25 26 25 26 25 25 25 24 24 24 24
25 25 25 24 24 24 24 24 24 24 24 24 24 24 23 23 23 23 23 23 23 23 23 24 24 24 23 23 23 24 24 25 25 25 25 25 25 25 25 25 25 25 25 24
25 25 24 24 24 24 24 24 24 24 24 24 24 24 24 23 23 23 23 23 23 22 22 23 23 22 22 23 24 24 24 24 25 25 25 25 24 24 25 25 25 24 24 24
25 25 25 24 24 24 24 24 24 23 23 23 23 23 23 23 23 23 23 23 22 22 22 22 22 22 22 22 23 22 22 23 24 24 24 25 25 25 25 25 24 24 24 24
24 24 25 25 24 24 24 24 24 24 23 23 23 23 23 23 23 24 24 23 23 22 22 22 21 22 22 22 23 23 22 23 23 23 24 24 25 25 26 25 25 25 25 24
23 24 24 24 24 24 24 24 24 24 24 24 24 24 24 24 24 24 24 24 23 23 22 22 23 23 22 22 23 23 23 23 24 23 23 24 24 25 25 25 26 26 26 26
23 23 23 23 24 24 24 24 24 25 24 24 25 25 25 25 25 24 24 23 23 23 23 23 23 23 23 23 23 23 23 23 23 23 23 23 24 24 24 25 25 25 25 26
23 23 22 23 23 23 23 23 23 23 23 23 23 24 24 24 24 24 23 24 24 24 24 24 24 23 23 23 23 23 23 23 24 24 24 23 23 23 23 24 24 25 25 25
23 23 23 23 23 23 23 23 22 22 22 22 23 23 23 23 23 23 23 23 24 24 24 24 24 24 24 24 24 24 24 24 24 24 24 23 24 24 24 24 24 24 25 25
24 24 24 24 24 24 23 22 22 22 22 22 22 22 22 22 22 22 22 23 23 23 24 24 25 25 25 25 24 24 25 25 25 25 25 24 24 24 24 25 25 25 26 26
Wind_Direction
274 274 273 272 269 270 272 274 272 269 268 267 269 268 269 271 273 274 274 273 271 270 272 272 272 272 271 271 270 269 270 269 270 272 272 273 274 272 273 273 274 275 275 276
273 273 272 270 271 271 272 276 274 271 269 269 269 268 268 270 272 273 274 273 271 271 272 273 273 271 271 271 270 269 270 270 271 273 273 274 273 273 273 273 275 276 276 277
274 273 272 270 271 270 270 273 276 274 273 272 270 269 268 269 271 272 273 273 272 273 273 274 274 272 271 271 270 270 270 271 272 273 273 274 273 272 273 273 275 276 277 277
277 274 271 273 272 270 271 273 274 276 276 275 273 273 271 271 272 274 274 274 273 273 273 273 272 271 270 270 270 270 271 272 272 273 274 274 273 272 274 274 274 275 276 277
280 276 273 270 271 272 271 272 274 277 278 277 276 276 274 273 273 274 274 275 274 273 272 272 272 270 268 268 269 270 272 272 272 273 274 273 272 273 274 275 275 275 276 277
283 280 276 273 272 273 272 272 275 277 280 279 278 277 277 275 274 275 276 276 274 272 272 273 273 270 268 267 268 269 270 271 271 272 274 275 272 273 275 276 276 276 276 277
284 282 278 275 273 273 273 276 276 278 280 280 279 279 280 278 276 277 278 278 275 273 273 272 272 270 268 267 267 267 268 269 270 271 273 274 273 273 275 277 277 277 277 279
286 284 283 279 275 274 275 276 278 279 280 279 278 279 279 279 279 278 278 279 277 275 273 271 270 270 269 267 267 267 267 269 270 271 272 275 274 273 275 276 279 280 280 281
286 285 286 282 278 277 278 278 279 280 280 280 279 279 280 279 279 279 279 280 280 277 274 271 270 270 269 267 265 266 267 268 269 270 274 275 276 276 276 278 280 282 282 282
286 284 284 282 280 280 280 280 280 280 281 281 280 281 281 280 278 278 279 280 281 279 274 272 271 270 268 266 264 264 265 267 268 269 272 274 275 276 277 279 281 283 284 283
288 287 286 284 281 280 280 280 281 282 282 282 281 282 282 283 281 278 279 279 279 278 275 272 271 270 268 267 264 263 264 267 268 269 270 272 273 275 276 279 281 282 281 283
290 288 286 286 284 282 280 280 281 281 281 282 283 282 282 282 282 281 281 279 278 277 275 273 271 270 269 266 264 265 265 266 267 268 269 270 271 274 276 279 281 281 278 279
288 287 287 288 287 283 282 281 281 282 281 280 282 282 282 282 282 282 281 279 278 276 273 271 270 269 268 266 264 264 264 264 265 267 268 269 272 274 276 279 281 281 280 281
287 287 286 288 287 284 283 282 282 283 283 282 282 282 282 283 282 281 281 279 277 275 272 270 269 268 267 265 264 263 263 263 264 265 266 268 272 273 275 277 279 280 281 282
286 285 286 287 287 286 284 284 284 284 284 284 283 283 283 283 282 282 279 278 277 275 272 270 268 268 267 265 264 263 263 263 264 265 267 269 270 272 274 275 276 277 278 279
285 285 286 287 288 287 285 285 285 285 285 286 286 286 286 285 283 283 281 279 278 275 271 270 269 268 267 266 265 264 262 262 263 265 267 268 269 270 272 274 276 276 276 277
284 285 287 287 287 286 286 285 285 285 286 287 288 288 288 287 285 283 281 281 279 275 272 269 269 268 267 265 264 263 261 262 262 264 266 267 270 272 274 275 276 276 277 277
283 284 286 287 287 286 286 285 284 284 285 287 288 289 290 290 288 285 283 281 278 275 272 270 268 267 267 266 265 264 263 263 264 266 267 268 270 272 273 274 274 274 274 275
286 286 286 287 287 287 286 284 283 283 283 285 286 287 288 289 289 286 285 284 281 276 272 270 270 267 266 266 266 266 265 264 265 265 265 267 268 269 270 270 272 273 274 275
285 287 287 288 288 286 285 284 284 284 284 284 285 286 286 287 287 286 286 284 282 278 274 272 270 269 267 267 268 267 264 262 264 265 265 266 267 268 268 268 268 271 273 274
287 287 288 289 289 287 285 284 284 284 284 283 284 284 285 285 285 286 286 284 281 278 276 273 271 269 268 267 267 266 264 264 264 265 265 266 266 266 266 266 267 269 271 273
288 289 289 288 289 287 286 286 286 285 283 283 283 283 284 284 284 285 285 283 281 280 277 276 274 271 270 268 267 266 266 266 265 265 266 268 268 267 267 267 268 269 270 272
289 289 289 289 289 289 287 286 285 285 283 282 282 282 282 282 284 285 284 282 280 278 276 276 276 274 272 269 268 267 267 267 266 266 266 268 269 269 268 268 269 269 269 271
288 290 290 290 290 290 289 287 286 285 284 282 282 281 281 282 282 283 282 281 279 277 276 276 276 276 273 270 269 268 268 267 267 267 268 269 269 268 267 268 269 269 270 271
289 291 292 292 292 291 290 289 288 287 285 283 283 283 283 282 283 282 280 279 278 277 277 277 277 276 274 271 270 268 268 267 266 266 267 267 268 269 269 269 270 271 272 273
289 290 291 291 292 292 291 291 289 288 286 285 285 285 283 283 284 283 281 279 278 278 277 277 277 277 275 272 270 269 268 266 264 264 265 266 267 268 270 271 272 272 273 275
287 288 289 290 291 290 290 289 289 287 286 285 286 286 285 285 285 284 283 281 280 280 279 278 277 276 275 273 271 269 269 269 267 265 266 266 267 267 268 269 271 272 273 275
Height
5777 5776 5776 5775 5775 5775 5775 5775 5775 5776 5775 5775 5774 5773 5773 5772 5772 5771 5771 5770 5769 5769 5768 5767 5767 5766 5765 5765 5764 5764 5763 5762 5762 5761 5760 5759 5758 5758 5757 5756 5755 5754 5753 5752
5771 5771 5770 5770 5770 5770 5770 5769 5769 5769 5769 5768 5767 5766 5766 5766 5765 5765 5764 5763 5762 5762 5761 5761 5760 5759 5758 5758 5757 5757 5756 5755 5755 5754 5753 5752 5751 5750 5750 5749 5748 5747 5746 5744
5765 5765 5764 5764 5765 5764 5764 5763 5763 5762 5763 5761 5761 5760 5759 5759 5758 5758 5757 5756 5756 5755 5754 5753 5753 5752 5751 5750 5750 5749 5749 5748 5747 5747 5746 5745 5744 5743 5742 5741 5740 5739 5738 5737
5758 5759 5758 5761 5759 5758 5757 5757 5756 5756 5755 5754 5754 5753 5752 5752 5751 5750 5750 5749 5748 5747 5746 5745 5745 5744 5743 5743 5742 5742 5741 5741 5740 5740 5739 5738 5737 5736 5735 5734 5732 5731 5730 5729
5752 5751 5751 5753 5752 5751 5751 5750 5749 5749 5748 5747 5747 5746 5745 5744 5743 5743 5742 5741 5740 5739 5738 5737 5737 5736 5736 5735 5735 5734 5734 5733 5733 5732 5731 5731 5730 5729 5727 5726 5725 5724 5723 5721
5746 5744 5744 5747 5746 5744 5744 5743 5743 5742 5741 5740 5739 5739 5739 5737 5736 5735 5734 5733 5732 5731 5730 5729 5729 5728 5728 5727 5727 5726 5726 5726 5725 5725 5724 5723 5722 5721 5720 5719 5718 5716 5715 5714
5740 5738 5737 5739 5738 5737 5738 5737 5736 5734 5733 5732 5731 5731 5731 5729 5728 5727 5725 5724 5723 5722 5722 5721 5720 5720 5719 5719 5719 5719 5718 5718 5717 5717 5716 5715 5715 5714 5713 5712 5710 5709 5708 5707
5733 5731 5733 5731 5730 5730 5729 5728 5727 5726 5725 5724 5723 5723 5722 5721 5720 5719 5718 5717 5715 5714 5713 5713 5712 5711 5711 5711 5711 5711 5710 5710 5710 5709 5708 5708 5707 5706 5705 5704 5703 5702 5700 5699
5727 5727 5725 5723 5722 5721 5721 5720 5719 5718 5717 5716 5716 5715 5714 5713 5712 5711 5709 5708 5707 5705 5704 5703 5703 5703 5702 5702 5702 5702 5702 5702 5702 5701 5701 5700 5699 5698 5698 5697 5695 5694 5693 5691
5719 5718 5717 5715 5714 5713 5713 5712 5711 5711 5710 5709 5708 5707 5706 5705 5704 5703 5701 5700 5698 5697 5695 5694 5694 5694 5693 5693 5694 5694 5694 5694 5694 5693 5693 5692 5692 5691 5690 5689 5688 5686 5685 5684
5712 5711 5710 5709 5707 5706 5705 5704 5704 5703 5702 5701 5700 5699 5698 5696 5695 5694 5692 5691 5690 5688 5687 5686 5685 5685 5684 5684 5685 5685 5685 5686 5685 5685 5685 5685 5684 5683 5683 5682 5680 5679 5677 5676
5706 5705 5703 5702 5700 5699 5698 5697 5696 5695 5694 5693 5691 5691 5689 5688 5686 5685 5683 5682 5681 5679 5678 5677 5676 5676 5676 5676 5676 5676 5677 5677 5677 5677 5677 5677 5676 5676 5675 5674 5673 5671 5669 5668
5698 5696 5695 5694 5693 5691 5690 5689 5688 5687 5686 5685 5683 5682 5680 5679 5677 5676 5674 5673 5672 5671 5670 5669 5668 5668 5667 5667 5667 5668 5668 5669 5669 5669 5669 5669 5669 5668 5667 5666 5665 5663 5662 5661
5690 5689 5687 5686 5685 5683 5682 5681 5680 5678 5677 5676 5674 5673 5671 5670 5668 5667 5665 5664 5663 5662 5661 5660 5659 5659 5659 5659 5659 5659 5660 5660 5660 5661 5661 5661 5660 5660 5659 5658 5657 5656 5654 5653
5683 5681 5680 5678 5677 5676 5674 5673 5672 5670 5669 5667 5666 5664 5662 5661 5659 5658 5656 5655 5654 5653 5652 5652 5651 5651 5650 5650 5650 5651 5651 5652 5652 5652 5652 5652 5652 5652 5651 5650 5649 5648 5647 5646
5675 5673 5672 5671 5669 5667 5666 5665 5664 5662 5661 5659 5657 5656 5654 5652 5651 5649 5647 5646 5645 5644 5643 5643 5642 5642 5642 5642 5642 5643 5643 5644 5644 5644 5644 5644 5644 5643 5643 5642 5641 5640 5640 5639
5667 5666 5664 5663 5661 5660 5658 5657 5656 5654 5653 5651 5649 5647 5646 5644 5642 5641 5639 5638 5637 5636 5635 5635 5634 5634 5634 5634 5634 5634 5635 5635 5636 5636 5636 5636 5635 5635 5635 5634 5633 5633 5632 5631
5659 5658 5657 5655 5654 5652 5651 5649 5648 5646 5645 5643 5642 5640 5638 5636 5635 5633 5631 5630 5628 5628 5627 5626 5626 5626 5626 5626 5626 5626 5626 5627 5627 5627 5627 5627 5627 5627 5626 5626 5625 5625 5624 5623
5651 5649 5648 5647 5645 5644 5642 5641 5640 5638 5637 5635 5634 5632 5631 5629 5627 5625 5624 5622 5621 5620 5619 5618 5618 5618 5618 5618 5618 5618 5618 5618 5619 5619 5619 5618 5618 5618 5618 5617 5617 5616 5616 5615
5643 5641 5640 5639 5637 5636 5634 5633 5631 5630 5628 5627 5626 5625 5623 5621 5620 5618 5616 5615 5613 5612 5611 5611 5610 5610 5610 5610 5610 5610 5610 5610 5610 5610 5610 5610 5610 5609 5609 5609 5609 5609 5608 5608
5634 5633 5632 5631 5629 5628 5626 5625 5623 5622 5620 5619 5618 5617 5615 5614 5612 5610 5609 5607 5606 5604 5604 5603 5602 5602 5602 5602 5602 5602 5601 5601 5602 5602 5602 5601 5601 5601 5601 5601 5601 5601 5600 5600
5627 5625 5624 5623 5621 5620 5618 5617 5615 5614 5613 5611 5610 5609 5607 5606 5604 5603 5601 5600 5599 5597 5596 5595 5595 5594 5594 5594 5594 5594 5594 5593 5593 5593 5593 5593 5593 5593 5593 5593 5593 5592 5592 5592
5619 5617 5616 5615 5613 5612 5610 5609 5607 5606 5604 5603 5602 5600 5599 5598 5596 5595 5594 5592 5591 5589 5589 5588 5587 5587 5586 5586 5585 5585 5585 5585 5585 5585 5585 5585 5584 5584 5584 5584 5584 5583 5583 5583
5611 5610 5608 5606 5605 5604 5602 5601 5599 5597 5596 5594 5593 5592 5590 5589 5588 5587 5585 5584 5583 5582 5581 5580 5579 5578 5578 5577 5577 5577 5577 5577 5576 5576 5576 5576 5576 5576 5576 5575 5575 5575 5574 5574
5603 5602 5600 5599 5597 5595 5594 5593 5591 5589 5587 5586 5585 5583 5582 5580 5580 5578 5577 5576 5575 5574 5573 5572 5571 5570 5570 5569 5569 5569 5568 5568 5568 5568 5568 5568 5567 5567 5567 5567 5566 5566 5566 5565
5596 5594 5593 5591 5589 5588 5586 5584 5583 5581 5580 5578 5577 5575 5574 5572 5571 5570 5569 5568 5567 5566 5565 5564 5563 5562 5562 5561 5561 5560 5560 5560 5559 5559 5559 5559 5559 5559 5559 5558 5558 5557 5557 5557
5588 5586 5585 5583 5581 5579 5578 5576 5575 5573 5572 5571 5569 5568 5566 5565 5563 5562 5561 5560 5559 5558 5557 5556 5555 5554 5554 5553 5552 5552 5551 5551 5551 5551 5551 5551 5550 5550 5550 5550 5549 5549 5548 5547